This is the latest recevied weather packets stored in our database for station/object K0APR. If no packets are shown the sender has not sent any weather packets the latest 10 day(s).
| Time | Temp. | Humidity | Pressure | Rain* | Wind** | Luminosity | Snow |
|---|---|---|---|---|---|---|---|
| 1777986624 | 5° C | 67% | 1010.9 hPa | 0 mm | - | 189 W/m² | - |
| 1777986321 | 4.44° C | 68% | 1011.2 hPa | 0 mm | - | 154 W/m² | - |
| 1777986020 | 4.44° C | 68% | 1010.9 hPa | 0 mm | - | 150 W/m² | - |
| 1777985716 | 3.89° C | 69% | 1011.2 hPa | 0 mm | - | 128 W/m² | - |
| 1777985413 | 3.89° C | 69% | 1010.9 hPa | 0 mm | - | 118 W/m² | - |
| 1777985109 | 3.89° C | 69% | 1010.9 hPa | 0 mm | - | 104 W/m² | - |
| 1777984806 | 3.33° C | 70% | 1010.9 hPa | 0 mm | - | 94 W/m² | - |
| 1777984503 | 3.33° C | 71% | 1010.9 hPa | 0 mm | - | 87 W/m² | - |
| 1777984198 | 2.78° C | 72% | 1010.9 hPa | 0 mm | - | 62 W/m² | - |
| 1777983896 | 2.78° C | 72% | 1010.2 hPa | 0 mm | - | 56 W/m² | - |
| 1777983592 | 2.22° C | 73% | 1010.5 hPa | 0 mm | - | 51 W/m² | - |
| 1777983289 | 2.22° C | 73% | 1010.5 hPa | 0 mm | - | 44 W/m² | - |
| 1777982985 | 2.22° C | 73% | 1010.2 hPa | 0 mm | - | 42 W/m² | - |
| 1777982682 | 1.67° C | 74% | 1010.2 hPa | 0 mm | - | 37 W/m² | - |
| 1777982381 | 1.67° C | 74% | 1010.2 hPa | 0 mm | - | 33 W/m² | - |
| 1777982077 | 1.67° C | 74% | 1010.2 hPa | 0 mm | - | 29 W/m² | - |
| 1777981776 | 1.67° C | 74% | 1010.2 hPa | 0 mm | - | 25 W/m² | - |
| 1777981471 | 1.67° C | 75% | 1010.2 hPa | 0 mm | - | 23 W/m² | - |
| 1777981168 | 1.67° C | 75% | 1009.8 hPa | 0 mm | - | 18 W/m² | - |
| 1777980865 | 1.11° C | 75% | 1009.8 hPa | 0 mm | - | 15 W/m² | - |
| 1777980560 | 1.11° C | 75% | 1009.5 hPa | 0 mm | - | 12 W/m² | - |
| 1777980258 | 1.11° C | 76% | 1009.5 hPa | 0 mm | - | 9 W/m² | - |
| 1777979954 | 1.11° C | 76% | 1009.5 hPa | 0 mm | - | 6 W/m² | - |
| 1777979649 | 1.11° C | 76% | 1009.5 hPa | 0 mm | - | 4 W/m² | - |
| 1777979346 | 1.11° C | 76% | 1009.5 hPa | 0 mm | - | 1 W/m² | - |
* Rain latest hour (hover to see other rain measurements)
** Current wind speed in m/s (hover to see current wind gust speed)